CAPE
467 453 446 319 160 93 36 1 0 0 0 0 0 0 0 0 0 0 0 0 0 0
160 584 521 340 207 98 66 1 0 0 0 0 0 0 0 0 0 0 0 0 0 0
458 453 229 240 389 239 63 0 0 0 0 0 0 0 0 0 0 0 0 0 0 0
691 431 439 533 569 346 0 0 0 0 0 0 0 0 0 0 0 0 0 0 0 0
493 214 296 342 368 42 0 0 0 0 0 0 0 0 0 0 0 0 0 0 0 0
445 427 358 300 180 0 0 0 0 0 0 0 0 0 0 0 0 0 0 0 0 0
359 420 241 66 0 0 0 0 0 0 0 0 0 0 0 0 0 0 0 0 2 1
204 21 0 0 0 0 0 0 0 0 0 0 0 0 0 0 0 0 0 1 0 2
0 0 0 0 0 0 0 0 0 0 0 0 0 0 0 0 0 0 0 0 0 1
0 0 0 0 0 0 0 0 0 0 0 0 0 0 0 0 0 0 0 0 0 0
0 0 0 0 0 0 0 0 0 0 0 0 0 0 0 0 0 0 0 0 2 0
0 0 0 0 0 0 0 0 0 0 0 1 0 0 0 0 0 0 0 0 0 0
0 0 0 0 0 0 0 0 0 0 0 0 0 1 0 0 0 0 0 0 0 0
0 0 0 0 0 0 0 0 0 0 1 1 0 0 0 0 0 0 0 0 0 0
CIN
-113 -78 -44 -42 -49 -70 -129 -52 -0 -0 -0 -0 -0 -0 -0 -0 -0 -0 -0 -0 -0 -0
-188 -112 -83 -87 -79 -136 -178 -53 -0 -0 -0 -0 -0 -0 -0 -0 -0 -0 -0 -0 -0 -0
-129 -143 -159 -110 -71 -140 -205 -0 -0 -0 -0 -0 -0 -0 -0 -0 -0 -0 -0 -0 -0 -0
-66 -131 -96 -59 -52 -89 -50 -0 -0 -0 -0 -0 -0 -0 -0 -0 -0 -0 -0 -0 -0 -0
-128 -170 -120 -105 -75 -231 -0 -0 -0 -0 -0 -0 -0 -0 -0 -0 -0 -0 -0 -0 -0 -0
-147 -97 -127 -123 -156 -0 -0 -0 -0 -0 -0 -0 -0 -0 -0 -0 -0 -0 -0 -0 -0 -0
-150 -122 -174 -232 -9 -0 -0 -0 -0 -0 -0 -0 -0 -0 -0 -0 -0 -0 -0 -0 -0 -2
-226 -332 -0 -0 -0 -0 -0 -0 -0 -0 -0 -0 -0 -0 -0 -0 -0 -0 -0 -1 -0 -0
-0 -0 -0 -0 -0 -0 -0 -0 -0 -0 -0 -0 -0 -0 -0 -0 -0 -0 -0 -0 -0 -0
-0 -0 -0 -0 -0 -0 -0 -0 -0 -0 -0 -0 -0 -0 -0 -0 -0 -0 -0 -0 -0 -0
-0 -0 -0 -0 -0 -0 -0 -0 -0 -0 -0 -0 -0 -0 -0 -0 -0 -0 -0 -0 -4 -2
-0 -0 -0 -0 -0 -0 -0 -0 -0 -0 -0 -2 -0 -0 -0 -0 -0 -0 -0 -0 -0 -0
-0 -0 -0 -0 -0 -0 -1 -1 -0 -0 -0 -5 -0 -3 -0 -0 -0 -0 -0 -0 -0 -0
-0 -0 -0 -0 -2 -0 -0 -0 -0 -0 -2 -1 -0 -0 -0 -0 -0 -0 -0 -0 -0 -0
Wind_Speed
11 11 7 8 4 7 7 8 8 9 11 11 10 10 11 11 12 14 15 18 21 22
11 9 7 7 5 5 5 8 8 9 7 7 10 10 10 11 13 15 18 20 22 22
8 6 5 3 4 4 6 7 8 8 8 10 10 10 10 13 15 16 18 20 22 25
11 8 7 6 6 6 6 7 10 10 11 10 10 11 12 14 15 15 16 19 23 24
11 9 8 9 8 7 7 8 9 11 10 9 10 12 14 14 15 15 16 21 22 25
7 8 8 8 9 9 9 11 12 11 10 10 12 13 14 12 14 15 18 20 24 26
6 6 8 10 10 10 11 12 12 12 12 13 12 11 13 13 14 16 19 24 23 27
8 8 9 10 11 12 13 13 14 13 13 11 11 12 13 13 14 20 23 21 25 28
7 9 11 11 11 13 13 13 13 11 11 11 13 10 12 15 20 22 21 24 27 31
10 11 12 13 14 15 14 13 12 12 12 13 14 13 15 18 20 23 24 27 31 30
10 11 12 13 14 14 13 14 13 13 13 14 15 14 15 18 22 24 26 26 27 29
10 11 12 13 13 12 13 13 13 13 13 16 16 16 16 20 23 25 28 29 31 34
10 11 11 12 13 13 13 14 14 16 16 16 18 17 19 22 25 29 31 32 35 37
10 11 12 12 13 14 14 14 14 16 17 18 17 20 22 25 27 31 35 36 37 37
Wind_Direction
184 208 206 188 174 260 251 252 270 282 291 292 294 300 299 307 308 312 314 315 320 322
206 197 218 198 202 202 244 286 299 300 292 288 295 291 298 300 307 310 315 318 319 321
234 256 252 254 251 261 296 300 306 297 294 297 293 296 296 301 309 304 315 320 322 326
255 268 267 281 292 283 294 301 310 308 303 294 293 297 299 302 308 307 314 323 327 325
250 256 270 292 298 300 298 307 311 314 309 301 301 304 303 301 312 314 321 325 329 325
277 262 272 291 298 305 308 311 315 312 310 310 310 307 314 308 314 317 320 325 322 322
300 298 306 317 319 317 316 316 318 318 313 313 312 313 320 317 316 322 320 319 319 324
314 311 318 318 320 319 319 320 320 321 323 323 322 322 322 320 313 318 319 318 321 323
321 322 323 327 329 330 331 333 333 333 330 329 328 321 322 322 319 321 320 320 322 323
325 332 337 336 336 336 338 341 341 339 337 333 331 328 325 325 324 325 325 323 323 326
333 335 337 339 341 343 346 345 346 345 343 339 335 331 330 330 329 327 325 326 327 327
337 339 341 342 345 349 350 351 350 348 343 341 343 342 337 333 332 332 332 332 332 331
341 343 346 349 351 351 352 351 350 347 344 343 340 340 341 341 338 334 332 332 331 330
344 343 345 347 346 347 348 347 347 347 347 347 352 351 348 344 339 336 333 332 332 333